Hourly Data Report for October 05, 2015

All times are specified in Local Standard Time (LST). Add 1 hour to adjust for Daylight Saving Time where and when it is observed.

ST LEONARD CS
NEW BRUNSWICK

47°09'28.050" N
67°49'55.014" W
245.00 m
810I001
71019
WIY

Download Data

Hourly Data (October 2015)
Hourly Data Report for October 5, 2015
Temp Definition
°C
Dew Point Temp Definition
°C
Rel Hum Definition
%
Wind Dir Definition
10's deg

Wind Spd Definition
km/h
Visibility Definition
km
Stn Press Definition
kPa
Hmdx Definition


Wind Chill Definition


Weather Definition


TIME
00:00 2.7 2.1 95 10 2   99.79     LegendNANA
01:00 1.7 1.0 96 9 3   99.75     LegendNANA
02:00 1.0 0.6 97 15 3   99.73     LegendNANA
03:00 1.0 0.5 97 15 1   99.69     LegendNANA
04:00 0.4 0.1 97 4 3   99.67     LegendNANA
05:00 1.2 0.9 98 17 4   99.65     LegendNANA
06:00 -0.4 -0.7 98 34 3   99.63   -1 LegendNANA
07:00 -1.4 -1.6 98 33 3   99.60   -2 LegendNANA
08:00 0.6 0.5 99 1 4   99.58     LegendNANA
09:00 5.0 4.5 97 33 3   99.55     LegendNANA
10:00 7.9 3.9 75 23 7   99.50     LegendNANA
11:00 11.4 5.1 65 26 7   99.46     LegendNANA
12:00 13.1 2.4 48 25 8   99.39     LegendNANA
13:00 14.6 4.5 51 24 4   99.30     LegendNANA
14:00 15.6 4.8 48 19 9   99.18     LegendNANA
15:00 15.3 3.6 45 21 10   99.11     LegendNANA
16:00 15.2 4.6 49 23 8   99.08     LegendNANA
17:00 14.6 5.7 55 18 7   99.05     LegendNANA
18:00 12.5 7.9 73 13 2   99.03     LegendNANA
19:00 11.4 8.5 82 7 4   99.04     LegendNANA
20:00 9.2 7.2 88 5 4   99.02     LegendNANA
21:00 7.5 6.1 91 8 1   99.00     LegendNANA
22:00 5.9 4.8 92 9 2   98.96     LegendNANA
23:00 5.1 4.2 94 36 1   98.93     LegendNANA

Notes on Data Quality.

Legend

  • E = Estimated
  • M = Missing
  • NA = Not Available
  • ‡ = Partner data that is not subject to review by the National Climate Archives
Date modified: